• In Hungary
  • List of Countries
  • For 7 days
  • Water Temperature
  • Satellite Maps
  • Weather Map
  • News
  • Weather Widgets
  • user-avatar
    Login

    Hourly Weather Bari

    Today, 19 January, Friday

    Time Temperature Precipitation Wind Pressure Humidity
    00:00 +21°C° 0 mm 4 mps 710 mmHg 83%
    01:00 +20°C° 0 mm 4 mps 710 mmHg 85%
    02:00 +20°C° 0 mm 3 mps 710 mmHg 86%
    03:00 +20°C° 0 mm 3 mps 709 mmHg 88%
    04:00 +19°C° 0 mm 2 mps 710 mmHg 89%
    05:00 +19°C° 0 mm 2 mps 710 mmHg 90%
    06:00 +19°C° 0 mm 2 mps 710 mmHg 91%
    07:00 +20°C° 0 mm 3 mps 710 mmHg 84%
    08:00 +21°C° 0 mm 3 mps 711 mmHg 76%
    09:00 +23°C° 0 mm 4 mps 711 mmHg 67%
    10:00 +25°C° 0 mm 4 mps 711 mmHg 60%
    11:00 +27°C° 0 mm 4 mps 711 mmHg 52%
    12:00 +28°C° 0 mm 5 mps 711 mmHg 45%
    13:00 +29°C° 0 mm 5 mps 710 mmHg 42%
    14:00 +30°C° 0 mm 5 mps 710 mmHg 39%
    15:00 +30°C° 0 mm 6 mps 710 mmHg 36%
    16:00 +29°C° 0 mm 6 mps 710 mmHg 42%
    17:00 +28°C° 0 mm 6 mps 710 mmHg 48%
    18:00 +26°C° 0 mm 7 mps 710 mmHg 54%
    19:00 +24°C° 0 mm 6 mps 710 mmHg 61%
    20:00 +23°C° 0 mm 5 mps 710 mmHg 67%
    21:00 +22°C° 0 mm 5 mps 711 mmHg 73%
    22:00 +22°C° 0 mm 4 mps 711 mmHg 76%
    23:00 +21°C° 0 mm 3 mps 710 mmHg 80%

    Tomorrow, 20 January, Saturday

    Time Temperature Precipitation Wind Pressure Humidity
    00:00 +20°C° 0 mm 2 mps 710 mmHg 83%
    01:00 +20°C° 0 mm 2 mps 710 mmHg 85%
    02:00 +19°C° 0 mm 2 mps 710 mmHg 88%
    03:00 +19°C° 0 mm 2 mps 710 mmHg 90%
    04:00 +19°C° 0 mm 2 mps 710 mmHg 91%
    05:00 +19°C° 0 mm 2 mps 710 mmHg 92%
    06:00 +18°C° 0 mm 3 mps 711 mmHg 93%
    07:00 +19°C° 0 mm 3 mps 711 mmHg 85%
    08:00 +21°C° 0 mm 3 mps 712 mmHg 78%
    09:00 +22°C° 0 mm 4 mps 712 mmHg 71%
    10:00 +23°C° 0 mm 4 mps 712 mmHg 60%
    11:00 +26°C° 0 mm 4 mps 711 mmHg 49%
    12:00 +28°C° 0 mm 3 mps 711 mmHg 38%
    13:00 +29°C° 0 mm 4 mps 710 mmHg 34%
    14:00 +30°C° 0 mm 4 mps 710 mmHg 30%
    15:00 +32°C° 0 mm 4 mps 709 mmHg 25%
    16:00 +30°C° 0 mm 4 mps 710 mmHg 30%
    17:00 +29°C° 0 mm 4 mps 710 mmHg 34%
    18:00 +28°C° 0 mm 5 mps 710 mmHg 39%
    19:00 +26°C° 0 mm 5 mps 710 mmHg 49%
    20:00 +25°C° 0 mm 5 mps 711 mmHg 59%
    21:00 +22°C° 0 mm 5 mps 711 mmHg 70%
    22:00 +22°C° 0 mm 4 mps 711 mmHg 74%
    23:00 +21°C° 0 mm 4 mps 711 mmHg 79%

    Day after tomorrow, 21 January, Sunday

    Time Temperature Precipitation Wind Pressure Humidity
    00:00 +20°C° 0 mm 3 mps 711 mmHg 83%
    01:00 +20°C° 0 mm 3 mps 711 mmHg 84%
    02:00 +20°C° 0 mm 3 mps 710 mmHg 85%
    03:00 +20°C° 0 mm 2 mps 710 mmHg 86%
    04:00 +20°C° 0 mm 2 mps 710 mmHg 87%
    05:00 +20°C° 0 mm 2 mps 710 mmHg 89%
    06:00 +20°C° 0 mm 2 mps 711 mmHg 90%
    07:00 +21°C° 0 mm 3 mps 711 mmHg 82%
    08:00 +22°C° 0 mm 3 mps 712 mmHg 74%
    09:00 +23°C° 0 mm 4 mps 712 mmHg 67%
    10:00 +26°C° 0 mm 4 mps 712 mmHg 56%
    11:00 +27°C° 0 mm 4 mps 712 mmHg 45%
    12:00 +29°C° 0 mm 5 mps 711 mmHg 34%
    13:00 +30°C° 0 mm 5 mps 711 mmHg 30%
    14:00 +32°C° 0 mm 5 mps 710 mmHg 27%
    15:00 +32°C° 0 mm 6 mps 710 mmHg 24%
    16:00 +30°C° 0 mm 6 mps 710 mmHg 29%
    17:00 +29°C° 0 mm 6 mps 710 mmHg 34%
    18:00 +27°C° 0 mm 6 mps 710 mmHg 40%
    19:00 +26°C° 0 mm 6 mps 711 mmHg 47%
    20:00 +25°C° 0 mm 5 mps 711 mmHg 54%
    21:00 +23°C° 0 mm 4 mps 712 mmHg 61%
    22:00 +22°C° 0 mm 4 mps 711 mmHg 65%
    23:00 +22°C° 0 mm 3 mps 711 mmHg 68%

    22 January, Monday

    Time Temperature Precipitation Wind Pressure Humidity
    00:00 +21°C° 0 mm 3 mps 711 mmHg 72%
    01:00 +20°C° 0 mm 2 mps 710 mmHg 74%
    02:00 +20°C° 0 mm 2 mps 710 mmHg 76%
    03:00 +19°C° 0 mm 2 mps 709 mmHg 79%
    04:00 +19°C° 0 mm 2 mps 710 mmHg 79%
    05:00 +18°C° 0 mm 2 mps 710 mmHg 79%
    06:00 +18°C° 0 mm 2 mps 710 mmHg 79%
    07:00 +20°C° 0 mm 3 mps 711 mmHg 65%
    08:00 +22°C° 0 mm 4 mps 712 mmHg 50%
    09:00 +24°C° 0 mm 6 mps 712 mmHg 35%
    10:00 +27°C° 0 mm 6 mps 712 mmHg 32%
    11:00 +28°C° 0 mm 6 mps 711 mmHg 29%
    12:00 +30°C° 0 mm 6 mps 711 mmHg 26%
    13:00 +30°C° 0 mm 6 mps 710 mmHg 26%
    14:00 +30°C° 0 mm 6 mps 709 mmHg 26%
    15:00 +32°C° 0 mm 6 mps 709 mmHg 27%
    16:00 +29°C° 0 mm 6 mps 709 mmHg 33%
    17:00 +28°C° 0 mm 7 mps 709 mmHg 39%
    18:00 +26°C° 0 mm 7 mps 709 mmHg 45%
    19:00 +24°C° 0 mm 6 mps 710 mmHg 52%
    20:00 +23°C° 0 mm 6 mps 710 mmHg 60%
    21:00 +22°C° 0 mm 6 mps 711 mmHg 67%
    22:00 +21°C° 0 mm 5 mps 710 mmHg 70%
    23:00 +20°C° 0 mm 4 mps 710 mmHg 74%

    23 January, Tuesday

    Time Temperature Precipitation Wind Pressure Humidity
    00:00 +20°C° 0 mm 4 mps 709 mmHg 77%
    01:00 +19°C° 0 mm 3 mps 709 mmHg 79%
    02:00 +19°C° 0 mm 3 mps 709 mmHg 82%
    03:00 +18°C° 0 mm 2 mps 708 mmHg 85%
    04:00 +18°C° 0 mm 2 mps 709 mmHg 86%
    05:00 +17°C° 0 mm 2 mps 709 mmHg 87%
    06:00 +17°C° 0 mm 2 mps 709 mmHg 89%
    07:00 +19°C° 0 mm 3 mps 710 mmHg 75%
    08:00 +20°C° 0 mm 4 mps 711 mmHg 62%
    09:00 +22°C° 0 mm 4 mps 711 mmHg 48%
    10:00 +25°C° 0 mm 5 mps 711 mmHg 40%
    11:00 +26°C° 0 mm 5 mps 710 mmHg 32%
    12:00 +28°C° 0 mm 5 mps 710 mmHg 24%
    13:00 +28°C° 0 mm 5 mps 709 mmHg 23%
    14:00 +29°C° 0 mm 5 mps 709 mmHg 22%
    15:00 +29°C° 0 mm 5 mps 708 mmHg 21%
    16:00 +28°C° 0 mm 6 mps 708 mmHg 27%
    17:00 +26°C° 0 mm 6 mps 709 mmHg 33%
    18:00 +24°C° 0 mm 7 mps 709 mmHg 40%
    19:00 +23°C° 0 mm 6 mps 709 mmHg 47%
    20:00 +21°C° 0 mm 6 mps 709 mmHg 54%
    21:00 +20°C° 0 mm 5 mps 710 mmHg 61%
    22:00 +20°C° 0 mm 5 mps 710 mmHg 65%
    23:00 +19°C° 0 mm 4 mps 709 mmHg 68%

    24 January, Wednesday

    Time Temperature Precipitation Wind Pressure Humidity
    00:00 +18°C° 0 mm 4 mps 709 mmHg 72%
    01:00 +18°C° 0 mm 3 mps 709 mmHg 76%
    02:00 +18°C° 0 mm 3 mps 708 mmHg 79%
    03:00 +17°C° 0 mm 2 mps 708 mmHg 83%
    04:00 +17°C° 0 mm 2 mps 708 mmHg 85%
    05:00 +16°C° 0 mm 2 mps 709 mmHg 87%
    06:00 +16°C° 0 mm 2 mps 709 mmHg 89%
    07:00 +18°C° 0 mm 2 mps 710 mmHg 78%
    08:00 +19°C° 0 mm 3 mps 710 mmHg 68%
    09:00 +21°C° 0 mm 3 mps 711 mmHg 58%
    10:00 +22°C° 0 mm 4 mps 710 mmHg 50%
    11:00 +25°C° 0 mm 4 mps 710 mmHg 43%
    12:00 +27°C° 0 mm 4 mps 709 mmHg 35%
    13:00 +27°C° 0 mm 4 mps 709 mmHg 34%
    14:00 +28°C° 0 mm 5 mps 709 mmHg 33%
    15:00 +29°C° 0 mm 5 mps 708 mmHg 32%
    16:00 +27°C° 0 mm 5 mps 708 mmHg 40%
    17:00 +26°C° 0 mm 5 mps 709 mmHg 47%
    18:00 +24°C° 0 mm 6 mps 709 mmHg 55%
    19:00 +22°C° 0 mm 6 mps 709 mmHg 62%
    20:00 +21°C° 0 mm 5 mps 709 mmHg 68%
    21:00 +20°C° 0 mm 5 mps 710 mmHg 75%
    22:00 +20°C° 0 mm 5 mps 709 mmHg 76%
    23:00 +19°C° 0 mm 4 mps 709 mmHg 77%
    Show more